GW4228 Weather Reports


time (UTC)temp
C
wind
direction
speed
KPH
gust
KPH
rain 1hr
cm
rain 24hr
cm
rain mn
cm
humidity
%
barometer
mb
20260505022504 16 128 1.6 9.7 0.00 0.00 0.00 50 1008.8
20260505022004 16 168 0.0 12.9 0.00 0.00 0.00 50 1008.8
20260505021519 16 157 1.6 12.9 0.00 0.00 0.00 49 1008.8
20260505021011 16 161 3.2 12.9 0.00 0.00 0.00 48 1008.7
20260505020507 16 205 3.2 9.7 0.00 0.00 0.00 48 1008.7
20260505020029 16 148 1.6 9.7 0.00 0.00 0.00 48 1008.7
20260505015508 16 232 1.6 14.5 0.00 0.00 0.00 48 1008.6
20260505015007 17 133 4.8 14.5 0.00 0.00 0.00 47 1008.6
20260505014528 17 169 3.2 17.7 0.00 0.00 0.00 48 1008.5
20260505014015 16 108 4.8 17.7 0.00 0.00 0.00 48 1008.5
20260505013504 16 171 1.6 17.7 0.00 0.00 0.00 48 1008.4
20260505013006 16 146 1.6 17.7 0.00 0.00 0.00 48 1008.3
20260505012505 15 342 3.2 14.5 0.00 0.00 0.00 49 1008.2
20260505012006 15 167 1.6 9.7 0.00 0.00 0.00 53 1008.2
20260505011523 15 145 1.6 3.2 0.00 0.00 0.00 54 1008.0
20260505011005 14 146 1.6 3.2 0.00 0.00 0.00 54 1007.9
20260505010508 13 135 0.0 3.2 0.00 0.00 0.00 57 1007.7
20260505010020 14 135 0.0 3.2 0.00 0.00 0.00 57 1007.5
20260505005507 14 135 0.0 3.2 0.00 0.00 0.00 55 1007.5
20260505005007 15 135 0.0 3.2 0.00 0.00 0.00 55 1007.5
20260505004542 15 135 0.0 3.2 0.00 0.00 0.00 56 1007.5
20260505004008 15 135 0.0 3.2 0.00 0.00 0.00 53 1007.4
20260505003509 15 135 0.0 3.2 0.00 0.00 0.00 51 1007.2
20260505003027 15 135 0.0 3.2 0.00 0.00 0.00 51 1007.2
20260505002514 15 135 0.0 3.2 0.00 0.00 0.00 51 1007.0
20260505002017 15 135 0.0 3.2 0.00 0.00 0.00 53 1007.0
20260505001514 16 135 0.0 3.2 0.00 0.00 0.00 52 1006.8
20260505001010 16 135 0.0 3.2 0.00 0.00 0.00 51 1006.8
20260505000503 16 135 0.0 3.2 0.00 0.00 0.00 50 1006.7
20260505000033 16 135 0.0 3.2 0.00 0.00 0.00 47 1006.6
20260504235508 16 135 0.0 3.2 0.00 0.00 0.00 47 1006.5
20260504235006 17 135 0.0 3.2 0.00 0.00 0.00 46 1006.4
20260504234524 17 135 0.0 3.2 0.00 0.00 0.00 43 1006.4
20260504234006 18 13 0.0 3.2 0.00 0.00 0.00 41 1006.4
20260504233508 18 13 0.0 3.2 0.00 0.00 0.00 41 1006.3
20260504233026 18 13 0.0 3.2 0.00 0.00 0.00 41 1006.4
20260504232510 18 13 0.0 3.2 0.00 0.00 0.00 40 1006.4
20260504232013 19 12 0.0 3.2 0.00 0.00 0.00 36 1006.3
20260504231531 20 12 0.0 3.2 0.00 0.00 0.00 35 1006.1
20260504231007 20 24 0.0 3.2 0.00 0.00 0.00 33 1006.1
20260504230505 20 5 0.0 8.0 0.00 0.00 0.00 33 1006.0
20260504230019 20 9 0.0 11.3 0.00 0.00 0.00 34 1006.0
20260504225507 20 30 0.0 11.3 0.00 0.00 0.00 34 1005.9
20260504225010 20 120 1.6 6.4 0.00 0.00 0.00 32 1005.9
20260504224520 20 308 1.6 9.7 0.00 0.00 0.00 35 1005.8
20260504224003 20 351 0.0 16.1 0.00 0.00 0.00 32 1005.9
20260504223503 20 286 0.0 16.1 0.00 0.00 0.00 32 1005.7
20260504223006 20 63 4.8 12.9 0.00 0.00 0.00 33 1005.7
20260504222504 20 84 3.2 19.3 0.00 0.00 0.00 32 1005.6
20260504222003 20 163 1.6 19.3 0.00 0.00 0.00 32 1005.7
20260504221510 20 34 1.6 11.3 0.00 0.00 0.00 34 1005.7
20260504221005 20 294 3.2 11.3 0.00 0.00 0.00 34 1005.7
20260504220503 20 37 1.6 11.3 0.00 0.00 0.00 32 1005.8
20260504220013 21 209 1.6 11.3 0.00 0.00 0.00 32 1005.6
20260504215502 21 194 1.6 9.7 0.00 0.00 0.00 33 1005.7
20260504215008 21 189 1.6 11.3 0.00 0.00 0.00 32 1005.6
20260504214513 21 277 3.2 11.3 0.00 0.00 0.00 31 1005.5
20260504214003 21 43 1.6 12.9 0.00 0.00 0.00 32 1005.5
20260504213503 21 132 1.6 12.9 0.00 0.00 0.00 31 1005.5
20260504213003 21 168 0.0 12.9 0.00 0.00 0.00 32 1005.4
20260504212503 21 160 3.2 12.9 0.00 0.00 0.00 32 1005.6
20260504212005 21 75 3.2 12.9 0.00 0.00 0.00 32 1005.6
20260504211508 21 61 1.6 16.1 0.00 0.00 0.00 34 1005.7
20260504211001 21 314 6.4 16.1 0.00 0.00 0.00 31 1005.7
20260504210503 21 136 4.8 19.3 0.00 0.00 0.00 30 1005.8
20260504210011 21 128 4.8 19.3 0.00 0.00 0.00 31 1005.6
20260504205506 22 128 4.8 19.3 0.00 0.00 0.00 33 1005.7
20260504205006 22 132 3.2 14.5 0.00 0.00 0.00 31 1005.7
20260504204517 21 171 1.6 14.5 0.00 0.00 0.00 31 1005.6
20260504204006 22 209 3.2 14.5 0.00 0.00 0.00 30 1005.6
20260504203505 22 47 1.6 14.5 0.00 0.00 0.00 32 1005.6
20260504203017 22 319 4.8 11.3 0.00 0.00 0.00 31 1005.6
20260504202511 22 220 6.4 14.5 0.00 0.00 0.00 30 1005.6
20260504202007 22 227 4.8 17.7 0.00 0.00 0.00 30 1005.7
20260504201506 22 333 1.6 17.7 0.00 0.00 0.00 32 1005.7
20260504201004 22 218 1.6 12.9 0.00 0.00 0.00 29 1005.7
20260504200505 22 241 3.2 24.1 0.00 0.00 0.00 31 1005.7
20260504200012 22 277 1.6 24.1 0.00 0.00 0.00 32 1005.6
20260504195504 22 65 3.2 16.1 0.00 0.00 0.00 29 1005.5
20260504195006 22 342 4.8 14.5 0.00 0.00 0.00 28 1005.8
20260504194518 22 31 1.6 12.9 0.00 0.00 0.00 32 1005.6
20260504194006 21 59 3.2 22.5 0.00 0.00 0.00 30 1005.7
20260504193509 21 212 6.4 22.5 0.00 0.00 0.00 29 1005.7
20260504193018 21 230 4.8 19.3 0.00 0.00 0.00 30 1005.7
20260504192505 21 170 6.4 19.3 0.00 0.00 0.00 29 1005.7
20260504192006 21 137 6.4 19.3 0.00 0.00 0.00 30 1005.6
20260504191520 21 130 4.8 17.7 0.00 0.00 0.00 29 1005.6
20260504191008 22 172 3.2 17.7 0.00 0.00 0.00 29 1005.6
20260504190506 21 60 3.2 17.7 0.00 0.00 0.00 30 1005.6
20260504190011 22 162 4.8 12.9 0.00 0.00 0.00 31 1005.7
20260504185504 22 321 3.2 14.5 0.00 0.00 0.00 31 1005.7
20260504185004 22 274 3.2 14.5 0.00 0.00 0.00 30 1005.7
20260504184515 21 217 3.2 12.9 0.00 0.00 0.00 29 1005.8
20260504184006 21 35 3.2 16.1 0.00 0.00 0.00 35 1005.9
20260504183506 21 277 3.2 19.3 0.00 0.00 0.00 30 1005.9
20260504183020 21 229 6.4 19.3 0.00 0.00 0.00 31 1005.8
20260504182505 21 180 3.2 14.5 0.00 0.00 0.00 31 1005.8
20260504182007 21 146 6.4 22.5 0.00 0.00 0.00 32 1005.7
20260504181522 21 227 3.2 22.5 0.00 0.00 0.00 30 1005.9
20260504181007 21 350 6.4 22.5 0.00 0.00 0.00 30 1006.1
20260504180508 21 346 3.2 22.5 0.00 0.00 0.00 30 1005.9
20260504180021 21 251 3.2 14.5 0.00 0.00 0.00 31 1006.0
20260504175512 21 133 4.8 14.5 0.00 0.00 0.00 30 1006.1
20260504175005 21 264 4.8 32.2 0.00 0.00 0.00 31 1006.1
20260504174514 21 305 6.4 32.2 0.00 0.00 0.00 30 1006.1
20260504174005 21 191 8.0 30.6 0.00 0.00 0.00 30 1006.1
20260504173506 21 221 4.8 14.5 0.00 0.00 0.00 33 1006.2
20260504173019 21 55 3.2 14.5 0.00 0.00 0.00 31 1006.4
20260504172504 20 261 4.8 20.9 0.00 0.00 0.00 30 1006.2
20260504172006 20 340 6.4 20.9 0.00 0.00 0.00 34 1006.2
20260504171524 20 136 3.2 12.9 0.00 0.00 0.00 33 1006.2
20260504171008 20 328 3.2 17.7 0.00 0.00 0.00 32 1006.4
20260504170508 20 284 3.2 17.7 0.00 0.00 0.00 33 1006.4
20260504151007 18 295 3.2 16.1 0.00 0.00 0.00 40 1007.4
20260504150511 18 347 6.4 19.3 0.00 0.00 0.00 38 1007.6
20260504141005 17 296 1.6 8.0 0.00 0.00 0.00 45 1008.2
20260504140505 16 11 1.6 14.5 0.00 0.00 0.00 44 1008.2
20260504130508 12 294 1.6 14.5 0.00 0.00 0.00 50 1009.0
20260504110506 5 169 0.0 3.2 0.00 0.00 0.00 74 1009.9
20260504100503 4 169 0.0 3.2 0.00 0.00 0.00 80 1009.6
20260504082006 5 169 0.0 3.2 0.00 0.00 0.00 75 1009.4
20260504081507 5 169 0.0 3.2 0.00 0.00 0.00 75 1009.4
20260504081004 5 169 0.0 3.2 0.00 0.00 0.00 73 1009.4
20260504080503 5 169 0.0 3.2 0.00 0.00 0.00 73 1009.4
20260504050508 1 135 0.0 3.2 0.00 0.00 0.00 84 1009.4
20260504050024 1 135 0.0 3.2 0.00 0.00 0.00 84 1009.4
20260504045505 1 135 0.0 3.2 0.00 0.00 0.00 83 1009.4
20260504045008 1 135 0.0 3.2 0.00 0.00 0.00 83 1009.4
20260504044510 1 135 0.0 3.2 0.00 0.00 0.00 83 1009.4
20260504044003 1 135 0.0 3.2 0.00 0.00 0.00 82 1009.4
20260504043503 1 135 0.0 3.2 0.00 0.00 0.00 82 1009.3
20260504043012 1 135 0.0 3.2 0.00 0.00 0.00 81 1009.3
20260504042504 1 135 0.0 3.2 0.00 0.00 0.00 81 1009.3
20260504042008 2 135 0.0 1.6 0.00 0.00 0.00 80 1009.3
20260504041520 2 135 0.0 3.2 0.00 0.00 0.00 80 1009.3
20260504041007 2 135 0.0 3.2 0.00 0.00 0.00 79 1009.3
20260504040507 2 135 0.0 1.6 0.00 0.00 0.00 79 1009.3
20260504040022 2 135 0.0 3.2 0.00 0.00 0.00 79 1009.2
20260504035510 2 135 0.0 3.2 0.00 0.00 0.00 79 1009.2
20260504035009 2 135 0.0 3.2 0.00 0.00 0.00 78 1009.2
20260504034524 2 135 0.0 3.2 0.00 0.00 0.00 77 1009.2
20260504034011 2 135 0.0 3.2 0.00 0.00 0.00 77 1009.2
20260504033508 2 135 0.0 3.2 0.00 0.00 0.00 76 1009.1
20260504033013 2 135 0.0 3.2 0.00 0.00 0.00 76 1009.1
20260504032503 3 135 0.0 3.2 0.00 0.00 0.00 75 1009.1
20260504032006 2 135 0.0 3.2 0.00 0.00 0.00 77 1009.1
20260504031518 2 135 0.0 3.2 0.00 0.00 0.00 77 1009.1
20260504031008 2 135 0.0 3.2 0.00 0.00 0.00 77 1009.0
20260504030508 2 135 0.0 1.6 0.00 0.00 0.00 76 1009.0
20260504030022 3 135 0.0 3.2 0.00 0.00 0.00 74 1009.0
20260504025508 3 135 0.0 3.2 0.00 0.00 0.00 73 1008.9
20260504025012 3 135 0.0 3.2 0.00 0.00 0.00 72 1008.9
20260504024522 3 135 0.0 3.2 0.00 0.00 0.00 72 1008.9
20260504024007 3 135 0.0 3.2 0.00 0.00 0.00 72 1008.9
20260504023507 3 135 0.0 3.2 0.00 0.00 0.00 72 1008.9
20260504023028 3 135 0.0 3.2 0.00 0.00 0.00 71 1008.9